Location: Unspecified
(0.0000°N, 0.0000°E)
Time: 00:29:40
(UTC+00:00)

CZ-3B DEB - Pass Details

Date: 16 December 2025
Orbit: 439 x 40833 km, 23.6° (Epoch: 17 December)

Event Time Altitude Azimuth Distance (km) Brightness Sun altitude
Rises 15:54:10 0° 290° (WNW) 8,296 ? 27.7°
Reaches altitude 10° 15:58:06 10° 295° (WNW) 8,490 ? 26.8°
Maximum altitude 18:50:38 64° 335° (NNW) 33,828 ? -12.5°
Drops below altitude 10° 03:25:59 10° 152° (SSE) 3,590 ? -34.0°
Sets 03:28:09 0° 138° (SE) 3,893 ? -33.5°
